Regional Weather Roundup
Issued by NWS

Home | Current Version | Previous Version | Graphics & Text | Print | Product List | Glossary On
Versions: 1 2 3 4 5 6 7 8 9 10 11 12 13 14 15 16 17 18 19 20 21 22 23 24 25 26 27 28 29 30 31 32 33 34 35 36 37 38 39 40 41 42 43 44 45 46 47 48 49 50
000
ASUS43 KFSD 230610
RWRSD

WEATHER ROUNDUP FOR SOUTH DAKOTA
NATIONAL WEATHER SERVICE SIOUX FALLS SD
1200 AM CST MON JAN 23 2017

NOTE: "FAIR" INDICATES FEW OR NO CLOUDS BELOW 12,000 FEET WITH NO
SIGNIFICANT WEATHER AND/OR OBSTRUCTIONS TO VISIBILITY.


SDZ001>005-009-010-012>017-230700-
NORTHWEST AND NORTH CENTRAL SOUTH DAKOTA

CITY           SKY/WX    TMP DP  RH WIND       PRES   REMARKS
BUFFALO          N/A     20  17  88 S7        29.73R WCI  11
FAITH            N/A     23  20  88 CALM      29.83F
MOBRIDGE       CLOUDY    30  24  78 NW9       29.83R WCI  22
$$

SDZ012>016-024>037-041>051-057-063-072>074-230700-
SOUTHWEST AND SOUTH CENTRAL SOUTH DAKOTA

CITY           SKY/WX    TMP DP  RH WIND       PRES   REMARKS
RAPID CTY ARPT CLEAR     22  18  85 CALM      29.78F
PIERRE         CLOUDY    27  23  85 W8        29.88S WCI  19
CUSTER         CLOUDY    26  13  57 CALM      29.72F
ELLSWORTH AFB  CLEAR     27  23  86 S3        29.77F
PHILIP         FOG       13  12  96 CALM      29.86S VSB 1/4
PINE RIDGE     PTCLDY    17  14  88 NE7       29.80F WCI   8
SPEARFISH      FAIR      27  16  63 CALM      29.74F
WINNER         CLOUDY    27  24  89 CALM      29.89S
$$

SDZ004>011-016>023-039-040-230700-
NORTHEAST SOUTH DAKOTA

CITY           SKY/WX    TMP DP  RH WIND       PRES   REMARKS
ABERDEEN       CLOUDY    31  25  78 NW9       29.86R WCI  23
WATERTOWN      CLOUDY    30  28  92 NW10      29.81S WCI  21
BROOKINGS      MIX PCPN  30  28  92 W9        29.83R WCI  22
SISSETON         N/A     34  31  88 NW10      29.81S WCI  26
$$

SDZ017-020-022-023-036>040-048>070-230700-
SOUTHEAST SOUTH DAKOTA

CITY           SKY/WX    TMP DP  RH WIND       PRES   REMARKS
SIOUX FALLS    CLOUDY    31  30  96 NW6       29.87R WCI  25
HURON          CLOUDY    31  28  89 NW9       29.88S WCI  23
CHAMBERLAIN    CLOUDY    31  28  88 W6        29.90R WCI  26
MITCHELL       CLOUDY    31  27  85 W12       29.91R WCI  22
YANKTON        CLOUDY    32  27  80 W7        29.90R WCI  26
$$

ABBREVIATIONS USED IN REMARKS
   TC - TEMPERATURE IN CELSIUS
  WCI - WIND CHILL INDEX
   HX - HEAT INDEX
  VSB - VISIBILITY




USA.gov is the U.S. government's official web portal to all federal, state and local government web resources and services.